Location: Ash Swamp
(41.5170°N, 74.6157°W)
Time: 02:38:51
(UTC+00:00)

Cosmos 2219 Rocket - Pass Details

Date: 14 July 2020
Orbit: 827 x 848 km, 71.0° (Epoch: 14 August)

Event Time Altitude Azimuth Distance (km) Brightness Sun altitude
Rises 01:04:58 0° 207° (SSW) 3,352 5.2 -6.0°
Reaches altitude 10° 01:07:23 10° 209° (SSW) 2,424 4.5 -6.4°
Maximum altitude 01:12:56 74° 294° (WNW) 865 2.5 -7.2°
Drops below altitude 10° 01:18:33 10° 21° (NNE) 2,451 4.9 -8.1°
Sets 01:21:01 0° 23° (NNE) 3,392 5.6 -8.4°
